sat.trackr.live / text

‹ back to catalog

STARLINK-3372

NORAD 51113 · 2022-005K

PAYLOAD ACTIVE UNKNOWN

§ Identity

Operator
Country
US
Launch date
2022-01-19
Launch site
AFETR
Launch vehicle
Mass (kg)
RCS (m²)

Purposes: comms

External: N2YO · Heavens-Above · Gunter

§ Orbital elements

Epoch: 2026-05-24T20:44:17.186784Z

Period
95.44 min
Inclination
53.2150°
Eccentricity
0.0001483
Mean motion
15.08835743 rev/d
Perigee alt
538.7 km
Apogee alt
540.8 km
Semi-major
6,917.9 km
B*
5.6184e-5
RAAN
307.1583°
Arg perigee
87.0374°
Mean anomaly
273.0787°
Rev number
24,037

§ Raw data

STARLINK-33721 51113U 22005K   26144.86408781  .00000606  00000+0  56184-4 0  99982 51113  53.2150 307.1583 0001483  87.0374 273.0787 15.08835743240375

JSON: /api/v1/satellites/51113 · /tle

For live sub-satellite position, see the globe view (requires WebGL).

§ Visibility from observer

Set your observer location to see the next 7 days of passes ≥ 10°. The values pass through the URL so the page stays shareable.

No JS? Fill the form by hand. The geolocation button needs JavaScript.